TimeEEST,TemperatureF,Dew PointF,Humidity,Sea Level PressureIn,VisibilityMPH,Wind Direction,Wind SpeedMPH,Gust SpeedMPH,PrecipitationIn,Events,Conditions,WindDirDegrees,DateUTC
12:20 AM,53.6,51.8,94,29.89,6.2,Calm,Calm,-,N/A,,Partly Cloudy,0,2012-10-26 21:20:00
12:50 AM,53.6,51.8,94,29.89,6.2,Calm,Calm,-,N/A,,Partly Cloudy,0,2012-10-26 21:50:00
1:20 AM,53.6,51.8,94,29.89,6.2,Calm,Calm,-,N/A,,Partly Cloudy,0,2012-10-26 22:20:00
1:50 AM,53.6,51.8,94,29.89,6.2,Calm,Calm,-,N/A,,Partly Cloudy,0,2012-10-26 22:50:00
2:20 AM,53.6,51.8,94,29.89,6.2,Calm,Calm,-,N/A,,Partly Cloudy,0,2012-10-26 23:20:00
2:50 AM,53.6,50.0,88,29.89,6.2,Calm,Calm,-,N/A,,Partly Cloudy,0,2012-10-26 23:50:00
3:00 AM,53,51,89,29.91,6,Calm,Calm,,,,Scattered Clouds,,2012-10-27 00:00:00
3:20 AM,53.6,50.0,88,29.89,6.2,Calm,Calm,-,N/A,,Partly Cloudy,0,2012-10-27 00:20:00
3:50 AM,53.6,50.0,88,29.89,6.2,Calm,Calm,-,N/A,,Partly Cloudy,0,2012-10-27 00:50:00
4:20 AM,53.6,50.0,88,29.89,6.2,Calm,Calm,-,N/A,,Partly Cloudy,0,2012-10-27 01:20:00
4:50 AM,51.8,50.0,94,29.89,6.2,Calm,Calm,-,N/A,,Partly Cloudy,0,2012-10-27 01:50:00
5:20 AM,51.8,50.0,94,29.89,6.2,Calm,Calm,-,N/A,,Partly Cloudy,0,2012-10-27 02:20:00
5:50 AM,51.8,50.0,94,29.89,6.2,Calm,Calm,-,N/A,,Partly Cloudy,0,2012-10-27 02:50:00
6:20 AM,51.8,50.0,94,29.89,6.2,Calm,Calm,-,N/A,,Partly Cloudy,0,2012-10-27 03:20:00
6:50 AM,51.8,50.0,94,29.89,6.2,Variable,3.5,-,N/A,,Partly Cloudy,0,2012-10-27 03:50:00
7:20 AM,53.6,51.8,94,29.89,6.2,Variable,3.5,-,N/A,,Partly Cloudy,0,2012-10-27 04:20:00
7:50 AM,53.6,51.8,94,29.86,6.2,Variable,3.5,-,N/A,,Scattered Clouds,0,2012-10-27 04:50:00
8:20 AM,53.6,51.8,94,29.86,6.2,Variable,3.5,-,N/A,,Scattered Clouds,0,2012-10-27 05:20:00
8:50 AM,55.4,55.4,100,29.86,6.2,NNE,4.6,-,N/A,,Scattered Clouds,20,2012-10-27 05:50:00
9:00 AM,56,55,95,29.88,6,NNE,4.6,,,,Partly Cloudy,20,2012-10-27 06:00:00
9:20 AM,57.2,55.4,94,29.86,6.2,Calm,Calm,-,N/A,,Scattered Clouds,0,2012-10-27 06:20:00
9:50 AM,59.0,57.2,94,29.86,6.2,Variable,3.5,-,N/A,,Scattered Clouds,0,2012-10-27 06:50:00
10:20 AM,60.8,57.2,88,29.86,6.2,East,4.6,-,N/A,,Scattered Clouds,100,2012-10-27 07:20:00
10:50 AM,64.4,59.0,83,29.86,6.2,SE,6.9,-,N/A,,Scattered Clouds,130,2012-10-27 07:50:00
11:20 AM,66.2,59.0,78,29.86,6.2,SSE,11.5,-,N/A,,Scattered Clouds,160,2012-10-27 08:20:00
11:50 AM,68.0,57.2,68,29.86,6.2,South,10.4,-,N/A,,Mostly Cloudy,170,2012-10-27 08:50:00
12:20 PM,68.0,57.2,68,29.86,6.2,South,11.5,-,N/A,,Mostly Cloudy,180,2012-10-27 09:20:00
12:50 PM,69.8,57.2,64,29.86,6.2,South,10.4,-,N/A,,Mostly Cloudy,180,2012-10-27 09:50:00
1:20 PM,71.6,57.2,60,29.86,6.2,South,11.5,-,N/A,,Mostly Cloudy,170,2012-10-27 10:20:00
1:50 PM,69.8,57.2,64,29.83,6.2,South,12.7,-,N/A,,Mostly Cloudy,180,2012-10-27 10:50:00
2:20 PM,69.8,57.2,64,29.83,6.2,South,11.5,-,N/A,,Mostly Cloudy,180,2012-10-27 11:20:00
2:50 PM,69.8,59.0,68,29.80,6.2,South,16.1,-,N/A,,Mostly Cloudy,180,2012-10-27 11:50:00
3:00 PM,69,58,61,29.81,6,South,16.1,,,,Partly Cloudy,180,2012-10-27 12:00:00
3:20 PM,68.0,57.2,68,29.80,6.2,South,15.0,26.5,N/A,,Mostly Cloudy,180,2012-10-27 12:20:00
3:50 PM,71.6,62.6,73,29.80,6.2,South,13.8,25.3,N/A,,Mostly Cloudy,170,2012-10-27 12:50:00
4:20 PM,71.6,62.6,73,29.77,6.2,South,16.1,-,N/A,,Mostly Cloudy,180,2012-10-27 13:20:00
4:50 PM,71.6,62.6,73,29.77,6.2,South,16.1,27.6,N/A,,Mostly Cloudy,180,2012-10-27 13:50:00
5:20 PM,69.8,62.6,78,29.77,6.2,South,17.3,28.8,N/A,,Mostly Cloudy,180,2012-10-27 14:20:00
5:50 PM,69.8,64.4,83,29.77,6.2,South,17.3,28.8,N/A,Rain,Light Rain,190,2012-10-27 14:50:00
6:20 PM,69.8,64.4,83,29.77,6.2,South,18.4,29.9,N/A,Rain,Light Rain,190,2012-10-27 15:20:00
6:50 PM,68.0,64.4,88,29.74,6.2,South,19.6,32.2,N/A,Rain,Light Rain,180,2012-10-27 15:50:00
7:20 PM,68.0,64.4,88,29.74,6.2,South,18.4,29.9,N/A,Rain,Light Rain,190,2012-10-27 16:20:00
7:50 PM,66.2,62.6,88,29.74,6.2,SSW,18.4,29.9,N/A,,Overcast,200,2012-10-27 16:50:00
8:20 PM,66.2,62.6,88,29.74,6.2,South,20.7,32.2,N/A,,Overcast,190,2012-10-27 17:20:00
8:50 PM,69.8,64.4,83,29.74,6.2,South,19.6,31.1,N/A,,Overcast,190,2012-10-27 17:50:00
9:00 PM,70,65,78,29.76,6,South,19.6,,,,Partly Cloudy,190,2012-10-27 18:00:00
9:20 PM,69.8,64.4,83,29.74,6.2,South,18.4,29.9,N/A,,Overcast,190,2012-10-27 18:20:00
9:50 PM,68.0,62.6,83,29.77,6.2,South,21.9,34.5,N/A,,Mostly Cloudy,180,2012-10-27 18:50:00
10:20 PM,68.0,62.6,83,29.77,6.2,South,21.9,36.8,N/A,,Mostly Cloudy,180,2012-10-27 19:20:00
10:50 PM,66.2,60.8,83,29.77,6.2,South,23.0,34.5,N/A,,Mostly Cloudy,190,2012-10-27 19:50:00
11:20 PM,66.2,60.8,83,29.77,6.2,South,21.9,33.4,N/A,,Mostly Cloudy,190,2012-10-27 20:20:00
11:50 PM,66.2,60.8,83,29.77,6.2,South,18.4,29.9,N/A,,Mostly Cloudy,180,2012-10-27 20:50:00